Wind_Speed
6 8 8 8 9 9 10 8 7 4 5 7 9 9 10 11 12 14 18 22 26 26 27 27 27 28 28 30 31 35 36 35 32 28 27 26 36 41 41 41 41 37 36 31 27
8 9 7 9 11 9 7 7 5 3 6 7 9 12 13 13 13 16 21 24 26 28 30 30 33 36 36 35 34 39 38 32 26 27 29 23 32 37 41 43 44 42 38 34 30
9 9 9 11 11 6 4 6 5 4 6 8 9 14 13 15 15 20 22 24 29 31 31 32 34 36 37 37 35 39 34 28 27 28 29 26 27 33 41 47 44 40 40 35 34
9 11 9 7 4 4 4 5 6 4 6 8 10 12 13 15 18 21 26 30 32 31 32 33 35 36 36 38 38 34 31 31 29 27 28 30 27 30 39 41 41 38 39 37 35
8 7 6 5 4 4 4 5 5 6 6 9 11 12 14 15 20 23 26 32 33 33 33 35 37 38 39 40 38 35 32 32 30 27 26 28 27 30 34 40 39 37 38 39 37
9 7 6 5 6 4 5 6 7 7 11 11 13 12 15 17 20 25 29 32 33 32 33 36 37 37 41 40 38 33 31 30 23 19 22 22 23 27 29 36 36 40 40 42 40
7 7 6 6 7 6 5 5 6 8 9 11 12 13 15 18 24 27 31 33 32 33 34 35 38 39 40 39 36 29 27 25 18 16 19 19 19 20 25 31 34 32 41 43 42
9 7 5 7 7 7 7 6 7 9 9 10 10 13 16 19 23 28 31 31 32 33 34 35 37 38 41 41 33 27 25 24 21 18 18 17 16 17 22 27 33 33 40 41 42
12 9 7 8 8 9 8 10 8 9 9 9 11 15 18 22 24 28 32 33 33 32 34 35 38 40 40 38 34 28 26 25 22 19 17 16 15 17 20 23 29 29 31 41 36
14 12 10 9 9 10 10 11 8 10 12 11 14 18 22 26 27 31 35 37 35 32 33 35 38 39 42 40 32 25 24 23 22 19 17 15 14 14 19 22 25 30 29 32 43
16 14 12 10 8 8 8 9 10 9 12 14 18 21 24 26 27 29 32 35 34 31 32 34 37 38 40 38 33 25 23 24 23 19 16 14 13 13 16 20 23 29 29 30 31
18 18 15 14 11 10 8 8 10 11 12 15 18 22 23 24 24 27 29 33 31 30 30 32 35 38 41 40 35 27 23 24 23 21 18 17 14 14 14 18 21 26 28 29 29
18 20 17 18 15 13 10 9 10 10 13 15 17 21 22 23 25 28 31 32 28 28 29 31 33 37 41 41 37 30 24 23 23 21 16 19 15 10 13 15 15 16 27 28 29
17 21 19 20 17 16 13 13 13 13 14 17 19 20 22 22 23 27 30 30 27 26 27 29 33 36 40 42 41 33 27 19 20 20 15 18 14 9 9 12 15 15 16 22 30
21 22 22 19 21 18 16 15 15 15 17 18 18 20 20 22 23 28 29 27 25 25 26 28 31 34 39 41 42 39 29 18 15 16 14 14 8 6 8 10 12 16 16 17 21
26 22 24 20 22 20 19 16 17 17 17 19 19 19 21 22 24 28 29 27 23 22 23 26 30 35 39 41 44 45 32 14 10 14 15 11 10 6 4 7 9 11 16 16 18
31 27 24 23 23 22 20 20 21 20 20 19 18 20 21 22 24 26 28 25 22 20 21 25 29 33 38 40 44 46 39 13 7 13 15 14 9 7 5 6 8 10 12 15 19
34 30 28 26 24 25 23 21 22 20 20 21 21 20 22 22 24 27 25 24 22 20 19 23 27 31 36 39 43 45 38 16 10 13 15 15 13 7 6 5 6 9 11 13 15
36 33 31 29 26 26 27 26 22 21 21 21 22 21 22 23 24 26 23 21 19 17 17 20 25 29 34 37 42 42 37 20 8 11 13 15 14 11 8 6 6 7 10 11 13
38 36 33 33 31 27 27 26 24 22 22 22 21 22 23 23 22 23 23 19 18 17 15 18 22 27 31 34 38 40 39 22 10 8 11 13 14 12 10 8 7 7 7 9 11
39 38 35 36 33 30 27 26 23 24 22 22 21 21 22 22 21 22 22 18 16 15 13 16 19 24 28 31 34 36 36 29 17 11 11 11 12 13 12 10 7 6 7 7 6
42 42 37 38 36 34 29 26 23 23 23 22 21 22 22 22 20 22 22 18 15 15 13 14 17 21 25 28 30 33 34 30 25 15 12 13 11 9 11 12 10 9 10 11 13
46 43 41 42 39 35 31 29 25 24 23 21 22 23 22 21 21 20 22 18 14 14 13 14 15 18 21 23 27 29 31 30 25 22 16 12 10 8 9 8 8 7 11 13 13
48 48 47 42 40 36 35 30 28 26 24 24 23 23 21 22 23 20 20 15 15 14 12 14 15 16 20 23 25 26 29 30 29 23 17 14 11 9 9 6 1 4 5 9 11
50 51 46 45 40 38 38 32 30 28 27 25 24 23 21 20 22 23 20 14 15 14 14 14 15 16 16 20 21 24 26 29 32 29 20 14 11 9 9 9 0 2 6 9 12
53 51 48 43 41 40 40 31 31 29 27 26 24 24 25 21 22 22 21 16 16 15 16 16 12 15 15 18 20 21 23 26 30 32 24 22 12 10 9 10 9 8 9 10 10
54 51 46 43 40 39 35 32 31 31 30 28 28 26 26 27 25 22 18 17 17 18 17 17 16 15 16 16 18 18 20 23 27 28 32 28 14 11 10 10 12 12 12 12 13
Wind_Direction
243 245 251 275 288 295 307 322 319 347 349 349 356 359 356 351 343 336 334 339 335 328 328 331 328 330 332 336 337 328 319 308 300 295 295 275 249 237 234 235 232 230 229 224 226
251 261 260 290 290 302 303 316 307 1 0 356 12 5 360 351 337 340 341 338 334 324 330 338 338 337 338 343 338 329 316 309 296 294 298 293 253 238 234 233 229 225 223 225 222
249 253 254 293 291 293 300 309 295 286 322 341 352 351 348 344 339 345 340 335 328 328 332 341 340 336 337 341 337 328 314 303 296 294 294 291 269 241 233 236 229 227 223 226 224
247 247 263 277 277 282 313 304 303 280 308 325 338 340 340 344 347 342 342 331 328 330 334 340 341 337 337 342 338 326 315 304 292 290 293 294 267 246 234 236 231 225 221 224 223
249 251 243 261 275 296 319 319 310 296 298 316 321 326 329 345 352 344 333 328 329 332 335 343 340 342 339 343 340 331 327 318 298 283 291 292 266 247 236 235 235 221 221 222 224
243 230 237 241 265 279 312 326 312 299 289 303 310 321 337 352 346 342 328 325 327 330 338 342 342 343 343 344 343 338 337 331 322 295 293 289 276 250 240 235 234 219 218 218 223
244 237 241 249 260 272 290 315 313 300 303 305 311 321 331 343 344 339 327 321 327 335 338 342 345 346 345 347 345 340 339 336 328 308 300 288 276 259 245 238 238 235 214 219 223
255 245 244 258 262 271 288 297 302 300 301 305 306 316 325 335 340 325 317 325 333 331 338 343 345 348 348 351 344 340 341 340 332 315 301 294 286 255 244 239 235 238 221 215 221
259 260 247 254 262 271 277 285 293 294 302 296 306 315 327 331 334 317 327 331 335 334 340 343 346 351 350 354 345 343 343 342 334 326 305 298 292 258 243 240 238 234 230 216 223
265 263 265 262 266 277 280 281 286 295 308 312 312 322 331 330 324 326 329 333 333 337 340 346 348 350 352 356 348 340 347 343 339 325 318 299 291 269 243 238 240 233 230 231 231
265 263 266 271 269 274 281 279 283 286 296 318 330 334 329 321 317 324 328 332 333 336 342 347 349 354 353 357 350 340 343 343 342 322 317 316 290 272 251 239 240 233 233 233 240
260 258 269 274 275 273 273 274 285 302 305 320 327 320 318 315 316 320 328 331 334 337 342 347 350 352 356 358 352 340 333 340 341 328 314 309 297 274 253 243 239 231 235 237 242
261 257 256 264 271 277 280 276 280 293 299 306 314 315 314 317 321 325 327 331 334 336 341 347 350 355 355 357 355 344 327 328 338 337 317 310 295 281 255 239 249 245 233 237 239
261 253 249 258 264 270 275 275 280 286 279 291 306 308 315 319 320 319 327 332 333 337 338 348 351 354 356 357 356 347 334 322 337 344 334 332 311 280 264 233 231 242 246 241 243
270 254 245 245 257 264 264 270 277 278 279 288 301 307 314 315 318 321 326 332 334 335 338 347 351 355 358 358 358 351 340 324 335 347 344 350 344 284 246 229 235 236 242 245 244
269 265 250 246 251 255 256 260 266 271 276 288 295 305 312 313 315 320 326 330 333 333 336 347 353 353 357 359 1 357 349 331 336 352 356 344 354 339 270 255 250 247 243 244 246
266 268 257 246 251 252 252 256 263 268 279 281 290 301 307 312 313 318 322 328 331 334 336 346 355 353 358 1 4 3 357 353 351 8 359 1 341 342 323 270 262 257 252 250 250
264 268 263 255 247 252 254 256 259 267 273 282 293 302 307 310 311 315 318 323 328 329 334 344 354 355 357 2 7 8 3 6 11 9 7 2 358 338 300 295 286 273 262 258 256
260 264 262 260 253 250 249 254 260 260 270 280 291 295 302 303 309 310 313 320 321 321 331 344 354 354 358 3 8 13 9 10 6 2 7 11 7 6 353 314 292 281 282 273 262
257 259 258 260 262 260 252 254 259 264 273 279 285 291 297 302 306 306 311 317 319 319 327 339 352 354 358 4 10 16 15 11 3 354 3 11 7 3 358 354 333 323 310 298 291
254 255 257 259 261 259 257 254 257 266 272 277 281 291 299 300 298 306 313 313 314 313 322 331 347 355 356 3 9 14 17 15 2 348 352 1 1 354 348 350 353 344 343 345 337
252 253 256 258 257 260 257 257 258 264 268 272 279 286 292 294 296 306 308 311 309 311 316 325 340 353 356 359 6 10 14 11 7 348 338 346 349 350 345 346 356 3 13 21 17
250 251 253 254 254 257 257 261 258 261 264 272 278 281 287 286 289 301 303 302 300 303 308 318 329 345 351 359 2 8 11 9 3 354 336 336 345 349 345 347 351 45 42 24 19
250 251 252 253 252 253 258 257 258 259 264 271 271 275 279 283 287 296 298 292 294 298 304 311 316 332 346 352 359 4 8 10 4 357 344 330 335 337 348 343 30 77 33 10 359
249 250 251 251 252 254 255 252 255 259 262 266 265 268 265 275 279 289 295 283 287 294 301 300 309 319 335 346 353 360 5 7 8 4 353 326 312 321 328 336 290 341 340 339 339
249 251 252 252 251 249 253 248 252 256 257 258 260 262 258 262 282 282 293 284 289 292 296 300 302 307 319 336 346 354 2 7 12 10 3 346 292 292 300 304 290 294 307 311 319
256 250 252 254 248 249 247 245 247 249 250 252 255 251 258 263 268 272 274 270 284 285 285 293 301 303 301 317 333 347 356 6 11 11 12 9 350 277 280 278 279 282 301 311 317
Height
5847 5848 5848 5845 5847 5846 5846 5844 5842 5841 5842 5841 5840 5839 5837 5835 5833 5831 5828 5825 5822 5820 5815 5809 5803 5799 5794 5786 5780 5774 5769 5762 5756 5754 5749 5749 5751 5754 5758 5760 5765 5769 5772 5776 5781
5846 5847 5846 5846 5846 5844 5843 5842 5841 5840 5841 5840 5839 5838 5836 5833 5831 5828 5825 5822 5820 5816 5810 5804 5798 5790 5785 5778 5773 5768 5760 5755 5751 5748 5744 5743 5742 5746 5750 5750 5752 5759 5765 5770 5774
5845 5845 5845 5844 5844 5843 5842 5841 5840 5840 5839 5839 5837 5836 5834 5832 5830 5826 5823 5820 5816 5812 5805 5798 5793 5787 5780 5773 5766 5760 5752 5748 5745 5742 5739 5737 5735 5739 5741 5741 5749 5754 5760 5765 5768
5843 5842 5842 5842 5841 5842 5840 5840 5839 5839 5838 5838 5836 5834 5832 5830 5829 5824 5820 5817 5813 5807 5802 5796 5791 5783 5776 5768 5761 5754 5747 5742 5738 5736 5732 5730 5729 5730 5734 5736 5740 5747 5753 5757 5761
5841 5841 5841 5840 5841 5840 5839 5839 5837 5837 5836 5836 5834 5832 5831 5828 5825 5822 5819 5815 5809 5804 5798 5792 5785 5778 5770 5763 5756 5748 5741 5735 5731 5729 5727 5724 5721 5721 5726 5729 5735 5740 5747 5752 5756
5837 5837 5838 5838 5839 5838 5838 5837 5836 5835 5835 5834 5833 5832 5829 5826 5822 5819 5817 5812 5806 5800 5794 5788 5782 5776 5767 5759 5751 5742 5736 5730 5725 5723 5721 5718 5715 5717 5720 5724 5729 5733 5739 5745 5750
5835 5834 5835 5836 5837 5836 5835 5835 5834 5833 5833 5832 5831 5830 5827 5825 5820 5818 5813 5808 5802 5796 5790 5785 5778 5772 5764 5755 5746 5739 5735 5728 5723 5720 5717 5715 5713 5713 5715 5719 5723 5726 5732 5738 5743
5832 5831 5832 5834 5835 5835 5833 5833 5832 5831 5831 5830 5829 5827 5824 5822 5819 5816 5810 5804 5798 5792 5787 5782 5775 5767 5759 5751 5744 5737 5731 5725 5720 5716 5714 5712 5709 5709 5711 5714 5717 5720 5725 5731 5736
5828 5829 5828 5831 5831 5832 5831 5831 5829 5830 5829 5827 5826 5825 5823 5820 5817 5814 5808 5802 5796 5790 5785 5778 5771 5763 5757 5749 5741 5733 5727 5722 5718 5713 5711 5709 5706 5706 5707 5709 5713 5717 5720 5724 5730
5826 5825 5827 5828 5828 5829 5828 5828 5827 5828 5827 5826 5824 5824 5820 5817 5814 5810 5805 5800 5794 5788 5782 5776 5769 5762 5754 5746 5739 5732 5727 5722 5717 5712 5708 5706 5704 5703 5703 5705 5708 5712 5716 5720 5720
5822 5822 5823 5824 5824 5825 5825 5825 5826 5825 5824 5823 5821 5819 5817 5815 5811 5807 5801 5796 5791 5786 5780 5774 5768 5759 5751 5744 5737 5730 5726 5721 5716 5711 5707 5703 5701 5700 5700 5701 5703 5707 5711 5714 5718
5819 5820 5821 5820 5820 5821 5820 5821 5822 5822 5821 5820 5819 5818 5815 5811 5808 5804 5799 5793 5788 5783 5778 5773 5766 5758 5752 5743 5736 5729 5724 5719 5715 5709 5705 5701 5699 5697 5696 5697 5699 5701 5705 5708 5710
5815 5817 5817 5817 5817 5818 5817 5818 5818 5818 5818 5817 5816 5814 5811 5809 5804 5800 5795 5790 5785 5781 5776 5771 5765 5757 5751 5743 5735 5726 5720 5716 5712 5706 5702 5698 5695 5694 5694 5695 5696 5698 5700 5703 5707
5811 5812 5814 5815 5816 5814 5814 5814 5815 5814 5814 5814 5812 5811 5809 5805 5802 5797 5792 5789 5783 5780 5775 5770 5764 5757 5750 5741 5732 5723 5717 5713 5709 5705 5700 5695 5693 5692 5692 5694 5696 5697 5699 5700 5701
5807 5808 5809 5809 5811 5811 5811 5811 5811 5811 5811 5810 5809 5807 5804 5803 5799 5794 5789 5784 5781 5777 5775 5769 5761 5756 5749 5741 5731 5722 5714 5710 5707 5704 5700 5696 5692 5690 5691 5692 5694 5696 5697 5698 5699
5801 5803 5804 5805 5807 5807 5807 5808 5808 5809 5807 5806 5805 5803 5801 5798 5794 5791 5787 5782 5778 5775 5771 5766 5760 5756 5748 5740 5730 5719 5710 5706 5706 5703 5700 5697 5694 5692 5691 5692 5693 5694 5695 5696 5697
5793 5797 5799 5799 5801 5802 5803 5803 5804 5803 5804 5802 5800 5798 5797 5794 5790 5786 5783 5779 5775 5773 5769 5765 5759 5754 5747 5740 5729 5719 5709 5705 5706 5702 5700 5697 5695 5694 5692 5691 5691 5692 5692 5692 5693
5786 5789 5791 5793 5794 5797 5798 5799 5798 5798 5798 5797 5795 5793 5792 5789 5786 5783 5779 5776 5774 5771 5768 5764 5757 5752 5747 5739 5730 5719 5710 5705 5705 5703 5701 5699 5697 5695 5693 5692 5691 5691 5690 5690 5690
5779 5781 5784 5786 5788 5791 5793 5792 5793 5793 5793 5792 5790 5789 5787 5783 5782 5779 5776 5774 5771 5768 5766 5762 5756 5752 5747 5740 5732 5722 5714 5708 5706 5705 5703 5700 5698 5695 5692 5691 5690 5689 5689 5688 5687
5770 5774 5776 5779 5781 5784 5786 5787 5786 5787 5788 5786 5785 5784 5782 5780 5778 5775 5773 5771 5769 5766 5763 5761 5757 5752 5747 5741 5733 5725 5718 5712 5709 5707 5703 5701 5698 5696 5694 5692 5690 5688 5687 5686 5685
5762 5765 5769 5771 5773 5776 5779 5779 5779 5781 5782 5782 5780 5779 5778 5776 5773 5771 5770 5769 5766 5764 5761 5758 5755 5752 5747 5742 5734 5728 5720 5714 5711 5708 5704 5702 5700 5696 5694 5692 5690 5688 5687 5685 5684
5754 5756 5761 5761 5765 5769 5771 5772 5773 5774 5775 5776 5775 5773 5773 5772 5770 5767 5766 5765 5764 5762 5759 5757 5754 5750 5747 5742 5736 5729 5722 5716 5711 5709 5704 5701 5701 5697 5694 5692 5690 5687 5686 5684 5682
5743 5747 5750 5752 5756 5761 5763 5765 5766 5767 5769 5770 5769 5768 5768 5767 5766 5763 5762 5762 5760 5759 5757 5755 5752 5749 5747 5744 5737 5731 5724 5717 5712 5707 5704 5702 5700 5696 5694 5692 5690 5687 5685 5685 5683
5734 5736 5740 5744 5748 5751 5754 5756 5759 5760 5762 5763 5763 5763 5763 5762 5761 5759 5758 5758 5756 5756 5754 5753 5751 5748 5745 5742 5737 5732 5726 5720 5713 5707 5705 5702 5699 5696 5694 5691 5689 5688 5687 5685 5684
5722 5725 5733 5735 5740 5742 5744 5748 5751 5753 5755 5756 5756 5757 5757 5757 5755 5755 5755 5754 5753 5753 5752 5751 5749 5746 5744 5741 5737 5733 5727 5721 5714 5708 5705 5701 5698 5696 5694 5693 5690 5688 5687 5686 5684
5711 5715 5721 5728 5731 5733 5735 5740 5742 5745 5748 5749 5750 5751 5752 5753 5752 5751 5751 5751 5751 5749 5748 5748 5746 5744 5742 5739 5736 5732 5727 5721 5715 5709 5704 5699 5696 5694 5693 5692 5691 5689 5688 5686 5684
5699 5706 5712 5717 5720 5723 5728 5731 5734 5736 5739 5742 5744 5745 5745 5746 5746 5745 5746 5746 5746 5745 5743 5743 5742 5741 5740 5737 5735 5733 5727 5722 5715 5711 5706 5700 5694 5692 5690 5689 5689 5688 5687 5685 5684